Atlanta Fulton, GA

12:32 AM EDT on April 28, 2017 (GMT -0400)
Fulton County-Brown

Weather History for KFTY - August, 2013

Change the Weather History Date:

Thursday, August 15, 2013

  Actual Average Record
Temperature  
Mean Temperature 72 °F 79 °F  
Max Temperature 75 °F 88 °F 102 °F (2007)
Min Temperature 69 °F 70 °F 62 °F (2014)
Cooling Degree Days 7 14  
Month to date cooling degree days 212 219  
Year to date cooling degree days 1147 1228  
Since 1 June cooling degree days 984 1028  
Growing Degree Days 22 (Base 50)    
Moisture  
Dew Point 62 °F    
Average Humidity 74    
Maximum Humidity 90    
Minimum Humidity 58    
Precipitation  
Precipitation T in 0.16 in 2.18 in (1974)
Month to date precipitation 1.99 2.45  
Year to date precipitation 31.97 33.13  
Sea Level Pressure  
Sea Level Pressure 30.04 in    
Wind  
Wind Speed 10 mph (ENE)    
Max Wind Speed 17 mph    
Max Gust Speed 23 mph    
Visibility 10 miles    
Events Rain    
T = Trace of Precipitation, MM = Missing Value Source: NWS Daily Summary

Daily Weather History Graph

Daily Weather History Graph

Search for Another Location

Airport or City:

Trip Planner

Search our weather history database for the weather conditions in past years. The results will help you decide how hot, cold, wet, or windy it might be!

Date:

Astronomy

Aug. 15, 2013 Rise Set
Actual Time 7:00 AM EDT 8:24 PM EDT
Civil Twilight 6:33 AM EDT 8:50 PM EDT
Nautical Twilight 6:02 AM EDT 9:21 PM EDT
Astronomical Twilight 5:29 AM EDT 9:54 PM EDT
Moon 3:35 PM EDT (8/15) 1:12 AM EDT (8/15)
Length of Visible Light 14h 16m
Length of Day
13h 24m
Waxing Gibbous, 64% of the Moon is Illuminated
Aug 15
Waxing Gibbous
Aug 20
Full
Aug 28
Last Quarter
Sep 5
New
Sep 12
First Quarter

Hourly Weather History & Observations

Time (EDT) Temp. Dew Point Humidity Pressure Visibility Wind Dir Wind Speed Gust Speed Precip Events Conditions
12:25 AM 71.6 °F 68.0 °F 88% 30.03 in 10.0 mi East 3.5 mph - N/A   Overcast
12:41 AM 71.6 °F 68.0 °F 88% 30.03 in 10.0 mi Calm Calm - N/A   Overcast
12:53 AM 72.0 °F 68.0 °F 87% 30.00 in 10.0 mi Calm Calm - N/A   Overcast
1:53 AM 71.1 °F 66.9 °F 87% 30.00 in 9.0 mi NE 3.5 mph - N/A   Mostly Cloudy
2:53 AM 72.0 °F 66.9 °F 84% 29.99 in 10.0 mi East 4.6 mph - N/A   Overcast
3:53 AM 71.1 °F 66.9 °F 87% 29.99 in 10.0 mi ENE 5.8 mph - N/A   Overcast
4:45 AM 71.6 °F 66.2 °F 83% 30.01 in 10.0 mi NE 4.6 mph - N/A   Overcast
4:53 AM 71.1 °F 66.9 °F 87% 29.99 in 10.0 mi ENE 4.6 mph - N/A   Overcast
5:08 AM 71.6 °F 66.2 °F 83% 30.02 in 10.0 mi East 4.6 mph - N/A   Overcast
5:40 AM 71.6 °F 66.2 °F 83% 30.02 in 10.0 mi East 5.8 mph - N/A   Overcast
5:53 AM 71.1 °F 66.9 °F 87% 29.99 in 8.0 mi ENE 4.6 mph - N/A   Overcast
6:53 AM 71.1 °F 64.9 °F 81% 30.00 in 10.0 mi ENE 10.4 mph - N/A   Overcast
7:53 AM 69.1 °F 64.0 °F 84% 30.02 in 9.0 mi NE 6.9 mph - N/A   Overcast
8:53 AM 70.0 °F 64.9 °F 84% 30.03 in 9.0 mi NE 9.2 mph - N/A   Overcast
9:00 AM 69.8 °F 64.4 °F 83% 30.06 in 9.0 mi ENE 5.8 mph - N/A   Overcast
9:53 AM 71.1 °F 64.0 °F 78% 30.05 in 10.0 mi ENE 12.7 mph - N/A   Overcast
10:21 AM 71.6 °F 60.8 °F 69% 30.07 in 10.0 mi East 11.5 mph 23.0 mph 0.00 in Rain Light Rain
10:53 AM 71.1 °F 62.1 °F 73% 30.06 in 10.0 mi ENE 13.8 mph - 0.00 in Rain Light Rain
11:00 AM 71.6 °F 60.8 °F 69% 30.08 in 10.0 mi East 13.8 mph 20.7 mph 0.00 in Rain Light Rain
11:07 AM 71.6 °F 60.8 °F 69% 30.09 in 10.0 mi ENE 12.7 mph 20.7 mph 0.00 in   Overcast
11:31 AM 71.6 °F 60.8 °F 69% 30.09 in 10.0 mi ENE 15.0 mph - 0.00 in Rain Light Rain
11:38 AM 71.6 °F 60.8 °F 69% 30.09 in 10.0 mi ENE 12.7 mph - 0.00 in Rain Light Rain
11:53 AM 73.0 °F 60.1 °F 64% 30.07 in 10.0 mi East 11.5 mph 19.6 mph 0.00 in Rain Light Rain
12:48 PM 73.4 °F 59.0 °F 61% 30.09 in 10.0 mi East 9.2 mph 17.3 mph 0.00 in   Overcast
12:53 PM 72.0 °F 57.9 °F 61% 30.06 in 10.0 mi ESE 15.0 mph 18.4 mph 0.00 in   Overcast
1:53 PM 73.0 °F 60.1 °F 64% 30.05 in 10.0 mi East 9.2 mph 16.1 mph N/A   Overcast
2:53 PM 75.0 °F 59.0 °F 57% 30.03 in 10.0 mi East 13.8 mph 20.7 mph 0.00 in   Overcast
3:53 PM 75.0 °F 57.9 °F 55% 30.03 in 10.0 mi ENE 13.8 mph - 0.00 in Rain Light Rain
4:53 PM 73.9 °F 60.1 °F 62% 30.03 in 10.0 mi East 9.2 mph - 0.00 in   Overcast
5:53 PM 73.9 °F 59.0 °F 59% 30.03 in 10.0 mi ENE 8.1 mph - 0.00 in Rain Light Rain
6:53 PM 73.0 °F 59.0 °F 61% 30.03 in 10.0 mi East 11.5 mph - 0.00 in   Overcast
7:53 PM 71.1 °F 59.0 °F 66% 30.04 in 10.0 mi East 8.1 mph - N/A   Overcast
8:53 PM 71.1 °F 57.9 °F 63% 30.06 in 10.0 mi ENE 8.1 mph - N/A   Overcast
9:53 PM 70.0 °F 57.9 °F 65% 30.06 in 10.0 mi ENE 9.2 mph - N/A   Overcast
10:53 PM 70.0 °F 57.0 °F 63% 30.07 in 10.0 mi East 10.4 mph 20.7 mph N/A   Overcast
11:53 PM 70.0 °F 55.9 °F 61% 30.08 in 10.0 mi East 9.2 mph - N/A   Overcast